Location: Austin
(30.3000°N, 97.7500°W)
Time: 01:21:50
(UTC-06:00)

Cosmos 1943 - Pass Details

Date: 04 November 2025
Orbit: 833 x 847 km, 71.0° (Epoch: 15 November)

Event Time Altitude Azimuth Distance (km) Brightness Sun altitude
Rises 17:56:46 0° 348° (NNW) 3,385 6.3 -4.1°
Reaches altitude 10° 17:59:21 10° 355° (N) 2,449 5.5 -4.7°
Maximum altitude 18:04:40 43° 67° (ENE) 1,162 3.5 -5.8°
Drops below altitude 10° 18:09:59 10° 138° (SE) 2,447 5.3 -6.9°
Sets 18:12:32 0° 144° (SE) 3,381 6.1 -7.4°
